Theta_e
353 350 351 344 351 350 356 357 349 350 351 349 348 349 349 351 350 343 345 344 344 340 344 346 345 345 344 344 344 344 342 341 339 342 339 332 331 333 334 334 336 333 332 331 330 330 330 330 330
346 354 352 343 350 355 356 354 353 350 350 350 350 349 349 350 350 345 344 343 344 342 338 344 344 343 338 343 344 343 343 342 341 342 340 339 334 334 333 333 334 334 333 332 331 330 330 331 333
340 352 349 347 349 358 357 353 352 350 350 349 350 349 348 350 348 343 343 343 343 341 340 342 343 340 336 338 340 341 342 342 342 339 336 340 335 334 332 333 333 333 332 331 330 330 331 333 334
341 351 349 351 355 356 354 354 351 349 350 349 348 351 348 349 342 342 341 342 340 343 341 341 342 336 332 332 332 337 341 341 341 341 338 338 334 332 331 332 331 330 329 327 329 332 336 337 336
343 347 347 350 354 353 353 353 350 351 352 351 349 352 350 347 343 341 340 340 337 335 340 336 333 335 331 329 340 337 338 340 340 336 339 338 335 331 331 330 330 329 327 328 331 333 334 335 336
342 346 347 350 352 353 352 352 351 352 351 351 351 351 350 347 343 340 339 339 337 333 331 331 330 329 328 328 336 342 337 331 332 332 334 340 337 336 332 330 329 328 330 331 332 335 336 335 335
341 344 347 350 351 356 354 351 351 350 351 349 350 351 349 350 343 340 340 339 338 338 338 336 331 332 332 342 329 335 335 335 338 338 335 338 332 336 337 335 331 331 329 330 334 334 334 336 338
344 341 347 347 350 350 353 352 350 350 352 349 350 350 349 350 342 340 340 339 339 339 339 339 339 338 338 336 340 333 331 331 332 338 341 337 337 334 334 333 332 331 329 331 333 331 334 337 337
343 339 344 347 350 349 353 353 352 353 351 350 350 350 349 349 347 343 340 340 340 340 339 339 339 340 340 341 341 342 343 336 334 339 339 336 339 338 335 333 332 332 330 334 331 330 337 338 333
338 338 342 342 345 350 352 348 353 352 351 352 349 349 350 349 348 344 341 340 340 340 339 339 339 338 338 340 339 340 345 341 340 340 340 341 339 337 337 337 334 332 332 332 329 333 339 338 331
338 338 340 341 345 348 352 349 352 352 352 351 350 350 350 349 348 345 344 342 340 340 339 338 338 338 337 337 336 338 339 341 341 341 340 341 342 341 339 338 338 332 332 331 332 340 339 335 334
339 338 341 340 345 349 351 350 351 350 347 348 348 348 350 349 349 347 347 345 344 342 341 340 339 338 338 338 336 335 337 338 338 338 340 340 340 339 341 340 339 335 331 334 338 338 337 333 335
334 335 339 340 342 344 346 350 349 349 347 348 347 350 350 350 349 349 349 348 348 346 345 344 341 340 339 339 339 336 338 338 338 339 340 340 338 339 336 337 336 331 335 339 333 332 330 333 336
331 331 335 338 340 341 344 345 348 347 345 349 347 349 350 350 350 350 349 349 349 347 347 346 343 343 342 340 340 339 337 340 341 342 341 340 341 344 340 337 338 338 339 333 333 332 332 333 337
331 331 330 333 338 338 342 341 340 346 349 348 347 349 349 350 350 350 349 349 348 348 346 346 346 345 346 343 342 340 343 343 343 344 343 340 340 342 341 343 342 342 342 341 339 341 342 343 339
328 329 332 333 333 335 338 337 331 342 349 347 346 347 349 349 347 349 349 350 350 349 348 347 347 347 347 344 345 347 346 344 344 345 343 342 341 341 340 341 340 340 343 341 341 340 340 341 341
324 329 330 333 333 333 333 334 330 336 349 347 345 345 347 348 349 349 349 350 350 349 347 346 348 349 348 347 347 345 345 345 346 346 345 345 343 343 339 338 343 342 340 341 344 343 343 342 343
327 326 327 328 329 332 332 331 328 344 348 347 346 345 344 344 344 347 349 350 350 350 349 348 348 349 348 347 346 345 345 346 345 344 345 345 345 345 340 343 345 342 341 342 343 342 343 342 342
326 325 325 325 325 332 331 329 329 330 348 348 347 346 345 344 346 347 348 350 350 351 350 350 349 349 347 347 346 346 346 345 346 346 346 344 344 344 344 342 344 340 344 345 347 343 344 340 342
323 325 324 323 325 327 327 327 326 326 340 347 347 348 347 345 345 347 348 349 350 350 343 349 350 349 349 347 347 347 347 346 345 346 345 346 345 344 346 345 344 344 339 344 344 343 343 344 343
323 323 323 323 324 325 326 325 327 326 328 331 342 345 348 348 347 348 348 349 350 349 349 340 349 349 349 347 348 346 347 346 346 346 347 345 346 344 344 345 346 344 339 342 342 341 344 343 343
323 321 323 326 323 325 324 325 324 325 329 329 334 337 340 344 348 348 348 349 349 349 349 346 348 349 349 348 347 347 346 346 346 347 346 345 346 344 344 344 345 343 341 337 336 339 342 344 344
322 324 325 325 323 323 325 324 324 326 328 328 330 336 338 339 342 345 348 348 348 347 348 348 348 349 349 347 347 347 347 346 347 346 345 345 345 345 343 345 345 342 340 337 335 342 344 345 343
323 324 321 321 320 325 323 325 327 337 334 330 333 341 339 337 342 344 345 348 347 347 348 347 348 349 348 348 347 347 347 346 346 343 343 344 344 344 343 343 344 344 342 340 337 343 346 346 346
321 320 323 326 325 326 320 328 330 334 338 337 341 343 337 335 341 344 345 346 346 347 347 347 349 349 349 348 348 348 347 347 347 345 346 346 345 344 344 343 344 343 341 340 341 343 343 344 342
323 321 322 329 326 325 322 331 330 339 341 343 344 343 342 343 344 344 345 346 346 346 347 348 348 337 344 349 348 348 348 347 347 347 346 347 345 343 344 345 343 343 341 341 343 343 344 344 343
324 324 320 320 320 324 325 331 332 340 341 342 345 345 345 345 345 345 345 344 338 336 339 346 348 346 346 347 348 348 348 348 347 347 347 346 345 344 344 344 344 343 342 343 344 343 343 342 343
323 321 324 320 329 330 327 329 329 343 343 342 344 346 346 346 344 338 338 337 335 340 342 344 347 348 347 347 348 349 348 349 348 347 348 347 344 344 342 342 342 342 342 344 342 342 345 344 345
322 322 318 318 321 328 329 329 326 341 341 341 342 347 346 346 343 337 338 338 336 341 347 349 349 350 350 349 349 348 348 349 347 346 348 347 343 344 341 341 343 342 344 343 340 341 343 344 342
321 322 318 321 323 321 324 327 329 339 338 337 339 345 347 347 346 342 337 340 339 338 340 346 346 348 349 349 351 350 350 349 348 348 345 346 343 343 343 343 344 343 345 342 341 341 342 342 342
Wind_Speed
14 9 10 1 4 6 2 4 2 3 3 4 12 3 5 3 1 2 20 29 26 24 24 27 24 24 23 23 24 26 25 24 26 26 23 24 24 21 19 17 16 16 16 15 13 12 11 10 9
15 14 5 4 5 4 3 4 3 2 6 14 8 6 4 3 2 14 30 28 27 25 25 25 23 22 22 22 23 23 23 24 25 24 20 22 21 21 17 16 15 14 13 12 10 10 9 8 7
12 12 4 4 3 2 1 3 3 10 7 3 3 7 3 2 8 34 26 32 28 26 24 24 22 20 20 22 22 21 20 22 23 22 19 18 20 20 17 15 14 13 12 10 8 7 7 6 6
8 4 5 5 2 2 3 2 4 1 8 5 8 5 5 2 29 19 28 31 27 26 24 23 23 20 19 19 21 20 20 20 21 19 18 19 19 18 16 16 14 13 11 10 8 6 6 5 3
7 4 5 3 2 3 3 4 11 3 3 4 3 3 5 8 11 22 28 29 26 24 23 23 22 22 20 20 19 19 19 19 18 18 17 18 18 17 16 15 14 12 10 8 7 5 4 3 3
5 3 4 2 1 3 5 5 6 3 3 4 7 6 5 5 12 26 26 26 23 23 23 22 22 21 20 20 21 20 18 18 18 20 22 17 18 14 15 14 12 11 9 7 5 3 3 2 2
5 3 1 3 2 3 4 9 1 3 6 3 11 4 4 11 17 24 24 23 22 20 21 22 23 21 20 18 20 20 18 16 15 15 19 21 26 18 12 12 12 11 9 7 5 3 2 2 3
4 3 1 2 2 1 6 9 8 3 2 11 8 6 6 19 25 25 24 23 21 19 19 20 20 20 19 19 18 18 18 16 14 13 16 20 18 22 14 12 12 11 10 8 5 4 3 3 4
3 4 0 3 4 4 11 4 8 4 6 4 10 4 7 26 27 26 26 25 23 20 20 19 19 19 18 18 18 18 16 17 17 14 13 13 11 12 20 17 15 13 10 8 6 6 4 4 5
3 3 5 4 6 6 11 8 12 5 6 4 4 6 12 28 28 27 28 27 26 24 23 21 19 18 18 18 18 16 16 14 13 14 13 13 13 15 16 16 19 15 12 10 9 8 6 6 6
2 3 5 4 7 21 13 3 10 12 4 13 13 18 26 30 29 26 26 26 27 25 24 22 20 19 18 18 16 15 15 13 15 13 11 11 15 14 20 19 16 19 15 13 10 10 7 7 7
3 6 5 5 8 9 4 3 6 12 3 7 11 19 31 32 32 29 26 24 24 24 22 21 21 20 19 18 16 14 14 13 13 12 11 11 10 11 14 19 20 20 14 12 10 9 10 9 9
2 2 5 8 9 8 5 10 4 14 15 6 15 24 32 33 32 30 27 25 24 25 22 22 21 20 18 19 16 14 14 13 11 12 10 12 9 7 7 9 14 15 14 12 11 10 10 9 9
7 8 6 9 13 4 5 2 5 8 15 16 22 28 28 31 35 33 30 29 27 25 23 23 22 19 19 19 18 15 14 12 13 12 11 13 12 8 9 10 11 10 7 10 9 9 8 8 10
5 4 5 7 9 5 9 5 9 15 18 25 28 30 29 31 34 36 33 30 26 27 18 23 23 21 19 18 19 16 14 13 14 12 12 11 14 11 11 11 10 8 7 8 9 9 8 7 9
3 4 5 4 5 4 11 11 6 13 23 26 30 31 31 32 31 34 35 34 29 28 28 20 23 23 20 19 18 18 16 15 14 11 11 10 11 13 11 12 9 8 9 9 9 11 11 10 10
7 1 4 7 5 3 3 9 5 14 26 22 28 32 33 33 33 34 35 36 34 31 26 25 23 23 20 21 17 16 16 16 13 12 13 11 10 12 12 11 8 9 8 9 9 10 12 12 9
6 6 3 5 5 4 3 14 7 11 25 24 26 30 34 35 35 34 35 36 35 33 29 23 24 22 22 20 18 19 21 20 16 15 14 13 12 11 13 11 9 10 8 9 10 10 9 10 10
3 3 5 5 8 3 6 7 17 11 19 17 25 31 35 38 31 33 35 37 37 33 27 28 27 24 20 22 23 23 23 20 16 18 17 17 15 13 13 14 12 10 9 8 9 12 12 8 8
4 4 7 7 5 3 3 9 12 3 12 29 27 31 38 35 32 33 35 36 34 32 18 32 28 28 26 20 20 21 20 19 16 18 17 18 18 16 15 13 14 13 14 10 10 10 9 9 8
3 5 4 6 5 3 4 8 5 4 6 14 25 32 34 39 38 35 35 36 31 26 31 20 28 30 27 21 20 20 21 21 20 20 21 20 19 18 17 14 14 15 16 14 12 13 14 11 11
3 6 4 3 4 2 3 4 5 6 4 4 3 21 27 32 33 35 35 33 36 32 29 16 22 29 26 23 22 22 21 20 18 19 20 19 20 19 19 18 15 14 18 19 17 17 16 14 14
9 2 1 2 2 2 4 3 7 7 8 9 7 5 14 20 30 33 37 34 31 27 25 28 23 23 23 22 22 23 22 18 17 17 20 21 23 22 19 21 19 16 15 15 17 16 16 16 15
2 1 5 4 3 3 3 3 5 5 7 8 8 6 4 11 19 24 28 31 28 25 24 24 24 23 21 23 24 24 23 19 17 16 16 20 22 24 24 23 24 20 21 22 18 17 16 14 15
6 6 4 5 5 4 2 3 7 8 9 6 11 9 4 7 17 19 21 24 22 22 23 24 25 25 26 27 25 25 24 22 20 18 17 19 19 22 26 27 24 20 16 17 18 19 15 15 14
3 6 5 2 1 5 3 1 5 5 15 13 3 6 14 14 13 13 13 16 5 20 24 26 18 17 31 30 30 27 24 23 22 21 20 20 20 21 23 26 26 23 17 16 17 19 15 15 15
3 4 4 6 3 2 2 3 4 5 7 11 9 17 18 18 14 14 16 21 9 16 22 25 29 29 16 33 30 28 25 24 23 22 21 22 20 18 13 16 22 20 22 18 20 18 18 16 15
7 4 4 4 1 3 5 4 5 2 3 7 6 14 18 23 21 11 19 17 11 15 17 16 19 25 26 27 27 26 24 24 24 20 19 20 16 14 10 13 18 20 20 21 20 18 14 16 16
4 3 6 5 3 4 2 5 5 7 3 5 7 11 19 28 22 30 16 4 5 6 1 6 10 15 20 24 26 28 24 23 23 15 17 15 13 15 14 15 17 21 19 20 21 17 14 17 14
2 3 4 5 3 1 3 5 2 5 2 8 9 2 14 23 26 24 17 5 7 10 8 6 6 11 13 16 21 27 27 27 19 17 15 11 12 11 16 18 20 22 21 21 21 18 17 19 16
Wind_Direction
12 353 9 63 60 63 2 335 317 93 130 189 156 183 161 91 149 198 145 154 161 155 151 155 153 151 148 146 150 154 156 155 157 154 150 152 157 151 150 150 143 134 129 125 122 118 111 105 96
1 357 18 63 83 81 299 300 90 88 112 115 112 112 65 89 77 141 147 153 163 156 156 156 157 157 157 156 155 157 160 159 159 154 157 159 160 157 155 157 155 146 139 132 133 120 116 112 109
358 356 23 78 79 101 49 302 53 138 117 146 107 66 65 95 132 143 149 153 160 157 161 158 163 164 160 161 163 163 164 165 164 162 171 169 165 164 164 164 161 156 150 147 145 133 127 125 129
1 8 60 69 80 213 204 301 305 137 86 80 118 65 58 331 143 149 155 156 161 160 162 164 168 169 163 159 159 164 172 175 174 176 181 177 172 168 172 168 168 164 162 162 155 148 140 145 167
13 40 56 64 333 293 277 230 224 323 57 83 82 87 82 101 152 151 153 158 163 161 163 168 168 172 170 165 157 160 166 175 179 178 189 183 180 177 178 177 178 176 176 172 167 162 156 175 215
39 43 62 93 216 317 288 211 213 111 134 96 97 93 139 195 165 154 157 160 165 163 164 168 168 170 172 171 168 166 171 175 184 189 186 184 180 187 186 188 190 189 180 177 183 178 169 205 236
112 89 246 133 158 151 243 229 198 159 138 80 137 82 140 170 168 160 159 160 163 168 168 170 172 176 178 175 176 178 184 188 184 193 193 188 198 193 194 192 196 194 188 190 191 201 202 217 224
180 90 34 335 144 242 203 159 179 139 74 143 168 168 174 170 168 164 167 167 168 172 177 176 177 180 181 183 182 191 195 197 199 200 198 203 215 213 191 205 207 205 204 207 209 236 235 227 215
146 63 150 212 157 221 180 165 166 114 138 184 185 172 177 166 172 172 173 175 177 181 186 187 189 188 189 193 190 193 197 201 207 208 211 218 228 192 205 221 220 217 216 219 233 254 239 239 188
114 114 217 209 180 191 202 190 158 125 170 227 195 206 191 171 177 177 181 183 187 189 190 192 194 193 193 196 193 195 199 205 209 214 212 230 221 215 216 219 218 219 221 230 248 255 242 220 185
196 190 179 237 205 185 201 106 161 134 220 224 195 165 173 175 181 183 186 193 192 194 196 195 196 197 197 199 201 199 201 199 204 212 217 219 212 220 219 219 225 219 221 237 249 247 238 209 193
330 280 203 197 196 178 187 156 165 189 249 275 216 178 177 184 187 189 192 195 196 197 200 203 204 204 204 203 205 205 202 201 200 207 210 213 213 218 221 225 226 211 221 242 243 234 219 197 198
223 275 238 225 205 196 205 229 199 226 229 217 178 181 185 192 196 198 203 204 203 206 205 207 210 211 212 212 209 207 207 206 209 204 204 198 188 180 189 190 190 203 230 232 236 227 220 205 206
309 290 267 244 221 220 186 216 204 251 211 185 182 188 196 199 204 205 206 209 210 215 214 218 212 215 218 220 215 208 211 203 205 206 203 200 194 200 186 190 197 201 226 225 227 215 213 210 212
289 307 325 251 230 214 181 283 227 233 196 180 189 192 200 205 209 214 211 208 211 216 217 218 219 216 220 219 215 209 212 203 206 205 206 203 199 206 198 202 206 200 213 220 221 212 217 233 226
34 46 5 286 163 245 152 260 262 212 192 184 191 196 202 207 217 220 220 218 215 222 226 231 222 219 219 216 215 215 217 211 211 203 209 209 204 207 205 201 203 223 223 227 226 233 241 242 242
8 319 310 314 223 102 171 264 289 197 195 188 194 200 205 212 216 223 226 225 224 225 227 233 225 223 224 219 218 222 231 225 223 229 228 220 219 215 210 209 226 233 233 233 233 236 239 243 242
319 338 314 258 287 167 206 271 256 200 195 199 201 206 211 215 217 218 223 228 230 228 229 240 233 235 229 227 224 224 231 231 223 231 225 229 228 224 219 219 225 229 229 234 240 240 249 247 241
245 213 252 258 267 189 245 267 276 209 212 207 207 209 216 220 218 220 223 228 232 232 237 238 237 230 227 224 223 227 232 238 234 228 232 228 231 228 225 227 231 234 237 252 254 244 250 237 227
214 250 278 294 254 123 312 270 266 210 221 217 210 210 218 223 220 220 224 224 227 234 223 231 232 234 232 232 230 238 244 244 247 245 236 232 233 234 233 229 236 241 241 247 246 241 229 221 222
206 197 247 232 338 14 355 307 318 321 273 258 233 233 228 227 224 217 223 228 220 214 226 245 224 232 232 228 228 232 239 243 247 245 238 239 234 236 238 235 238 240 238 235 237 241 242 233 226
300 209 244 276 56 278 48 275 308 337 15 31 203 227 236 235 228 227 222 226 230 233 219 231 221 225 231 232 230 226 234 242 255 253 244 247 240 240 240 238 239 236 236 242 249 247 236 228 221
230 359 74 33 114 62 1 66 279 353 356 346 350 209 232 241 234 229 225 226 229 235 231 228 227 223 232 237 238 235 234 238 252 262 251 246 246 248 247 240 242 237 243 246 247 246 225 226 227
72 64 46 59 72 33 302 109 308 339 298 299 325 338 293 234 227 225 226 222 227 228 231 233 228 227 231 241 242 242 242 238 242 247 248 249 249 249 247 243 236 239 257 246 239 232 228 226 232
75 52 351 6 10 229 352 68 243 296 317 305 319 323 84 172 209 215 214 208 221 225 228 231 228 229 235 243 247 247 249 245 246 246 250 253 254 254 251 248 239 239 251 229 231 225 232 229 234
86 129 145 220 261 277 302 17 271 319 330 337 354 102 112 133 160 165 184 192 202 246 237 239 207 261 230 234 244 248 250 252 252 254 254 258 258 267 262 242 239 232 247 231 226 227 226 229 239
163 55 165 103 8 44 269 309 323 349 337 353 62 100 110 122 128 138 150 173 226 224 224 231 227 254 258 241 239 247 252 256 257 258 262 263 269 275 257 224 226 227 236 218 225 226 223 235 234
102 158 44 14 170 289 305 269 228 201 283 319 36 102 131 136 137 166 163 189 216 220 230 238 244 256 240 248 237 245 258 261 263 257 262 267 277 261 226 220 217 223 213 217 224 223 221 231 225
358 24 61 111 121 173 226 270 213 185 245 326 340 146 159 165 165 171 182 167 244 326 275 236 261 274 269 262 252 254 255 268 272 272 264 270 273 245 223 225 222 211 213 219 222 223 224 217 221
122 129 105 112 261 44 141 279 318 166 334 325 315 328 192 181 184 194 199 202 258 321 308 304 279 255 259 268 268 266 264 261 273 274 267 263 254 241 234 229 219 214 217 218 221 222 226 216 224